SCP
0 0 0 0 0 0 0 0 0 0 0 0 0 0 0 0 0 0 0 0 0 0 0 0 0 0 0 0 0 0 0 0 0 0 0 0 0 0 0 0 0 0 0
0 0 0 0 0 0 0 0 0 0 0 0 0 0 0 -0 -0 -0 0 0 0 0 0 0 0 0 0 0 0 0 0 0 0 0 0 0 0 0 0 0 0 0 0
0 0 0 0 0 0 0 0 0 0 0 0 0 0 -0 -0 -0 0 0 0 0 0 0 0 0 0 0 0 0 0 0 0 0 0 0 0 0 0 0 0 0 0 0
0 0 0 0 0 0 0 0 0 0 0 0 0 0 0 0 0 0 0 0 0 0 0 0 0 0 0 0 0 0 0 0 0 0 0 0 0 0 0 0 0 0 0
0 0 0 0 0 0 0 0 0 0 0 0 0 0 0 0 0 0 0 0 0 0 0 0 0 0 0 0 0 0 0 0 0 0 0 0 0 0 0 0 0 0 0
0 0 0 0 0 0 0 0 0 0 0 0 0 0 0 0 0 0 0 0 0 0 0 0 0 0 0 0 0 0 0 0 0 0 0 0 0 0 0 0 0 0 0
0 0 0 0 0 0 0 0 0 0 0 0 0 0 0 0 0 0 0 0 0 0 0 0 0 0 0 0 0 0 0 0 0 0 0 0 0 0 0 0 0 0 0
0 0 0 0 0 0 0 0 0 0 0 0 0 0 0 0 0 0 0 0 0 0 0 0 0 0 0 0 0 0 0 0 0 0 0 0 0 0 0 0 0 0 0
0 0 0 0 0 0 0 0 0 0 0 0 0 0 0 0 0 0 0 0 0 0 0 0 0 0 0 0 0 0 0 0 0 0 0 0 0 0 0 0 0 0 0
0 0 0 0 0 0 0 0 0 0 0 0 0 0 0 0 0 0 0 0 0 0 0 0 0 0 0 0 0 0 0 0 0 0 0 0 0 0 0 0 0 0 0
0 0 0 0 0 0 0 0 0 0 0 0 0 0 0 0 0 0 0 0 0 0 0 0 0 0 0 0 0 0 0 0 0 0 0 0 0 0 0 0 0 0 0
0 0 0 0 0 0 0 0 0 0 0 0 0 0 0 0 0 0 0 0 0 0 0 0 0 0 0 0 0 0 0 0 0 0 0 0 0 0 0 0 0 0 0
0 0 0 0 0 0 0 0 0 0 0 0 0 0 0 0 0 0 0 0 0 0 0 0 0 0 0 0 0 0 0 0 0 0 0 0 0 0 0 0 0 0 0
0 0 0 0 0 0 0 0 0 0 0 0 0 0 0 0 0 0 0 0 0 0 0 0 0 0 0 0 0 0 0 0 0 0 0 0 0 0 0 0 0 0 0
0 0 0 0 0 0 0 0 0 0 0 0 0 0 0 0 0 0 0 0 0 0 0 0 0 0 0 0 0 0 0 0 0 0 0 0 0 0 0 0 0 0 0
0 0 0 0 0 0 0 0 0 0 0 0 0 0 0 0 0 0 0 0 0 0 0 0 0 0 0 0 0 0 0 0 0 0 0 0 0 0 0 0 0 0 0
0 0 0 0 0 0 0 0 0 0 0 0 0 0 0 0 0 0 0 0 0 0 0 0 0 0 0 0 0 0 0 0 0 0 0 0 0 0 0 0 0 0 0
0 0 0 0 0 0 0 0 0 0 0 0 0 0 0 0 0 0 0 0 0 0 0 0 0 0 0 0 0 0 0 0 0 0 0 0 0 0 0 0 0 0 0
0 0 0 0 0 0 0 0 0 0 0 0 0 0 0 0 0 0 0 0 0 0 0 0 0 0 0 0 0 0 0 0 0 0 0 0 0 0 0 0 0 0 0
0 0 0 0 0 0 0 0 0 0 0 0 0 0 0 0 0 0 0 0 0 0 0 0 0 0 0 0 0 0 0 0 0 0 0 0 0 0 0 0 0 0 0
0 0 0 0 0 0 0 0 0 0 0 0 0 0 0 0 0 0 0 0 0 0 0 0 0 0 0 0 0 0 0 0 0 0 0 0 0 0 0 0 0 0 0
0 0 0 0 0 0 0 0 0 0 0 0 0 0 0 0 0 0 0 0 0 0 0 0 0 0 0 0 0 0 0 0 0 0 0 0 0 0 0 0 0 0 0
0 0 0 0 0 0 0 0 0 0 0 0 0 0 0 0 0 0 0 0 0 0 0 0 0 0 0 0 0 0 0 0 0 0 0 0 0 0 0 0 0 0 0
0 0 0 0 0 0 0 0 0 0 0 0 0 0 0 0 0 0 0 0 0 0 0 0 0 0 0 0 0 0 0 0 0 0 0 0 0 0 0 0 0 0 0
0 0 0 0 0 0 0 0 0 0 0 0 0 0 0 0 0 0 0 0 0 0 0 0 0 0 0 0 0 0 0 0 0 0 0 0 0 0 0 0 0 0 0
0 0 0 0 0 0 0 0 0 0 0 0 0 0 0 0 0 0 0 0 0 0 0 0 0 0 0 0 0 0 0 0 0 0 0 0 0 0 0 0 0 0 0
Wind_Speed_500mb
9 7 6 4 3 4 4 5 5 6 7 11 15 18 20 20 25 27 28 31 31 32 32 33 35 38 39 40 41 42 41 42 40 44 51 54 47 52 55 56 59 63 66
11 8 6 4 2 1 2 3 5 5 9 15 20 22 25 28 28 30 29 30 29 28 29 29 36 36 39 41 40 42 45 41 46 49 54 55 53 53 56 57 61 69 66
15 12 9 7 5 4 2 1 7 13 18 20 25 27 29 27 28 28 28 24 24 24 29 32 30 38 40 42 42 43 44 44 44 43 48 50 52 54 54 57 60 61 62
16 16 12 9 7 2 2 7 13 17 21 25 28 29 27 27 25 23 18 20 23 26 26 31 36 46 39 41 43 40 38 40 42 43 53 61 65 67 67 67 66 68 68
12 11 10 9 10 9 11 12 16 20 20 23 27 24 24 21 13 13 14 22 24 19 30 33 40 39 39 36 37 42 44 49 55 62 65 67 67 68 69 69 71 72 73
17 15 16 16 14 15 16 18 20 21 22 26 20 19 15 8 11 22 15 19 29 24 36 37 37 34 38 37 40 47 55 61 66 69 71 71 71 70 68 70 72 75 78
22 21 18 20 17 19 20 21 22 23 24 21 21 18 4 5 5 9 25 8 26 37 34 36 38 40 38 43 50 58 63 62 63 66 69 73 73 71 70 71 73 76 76
29 25 24 25 25 25 25 23 23 24 24 19 22 18 3 1 10 6 13 20 31 39 36 32 40 37 42 57 61 58 61 64 67 69 70 70 70 71 73 75 77 79 82
32 29 32 31 31 29 33 30 27 25 24 23 20 10 7 4 24 13 16 28 35 34 31 37 35 42 52 57 59 62 62 62 63 63 63 65 67 70 72 75 78 80 81
38 40 39 38 38 38 34 33 29 29 27 26 20 14 11 14 7 10 24 24 30 35 26 35 31 47 52 53 53 55 57 58 59 60 62 63 65 67 71 73 76 79 83
40 40 41 42 41 40 35 34 31 30 27 24 18 14 13 16 13 12 10 19 29 26 28 32 32 45 48 46 49 51 53 56 57 58 61 64 66 66 69 72 74 78 82
48 42 42 44 42 41 38 33 30 28 26 20 17 14 14 14 17 14 16 16 21 17 20 26 31 44 43 44 47 48 50 53 56 59 62 63 60 61 64 70 76 80 82
57 46 40 44 44 42 42 38 34 29 23 20 16 15 16 16 17 20 22 24 21 18 16 21 35 39 41 44 45 44 48 52 55 59 60 61 59 59 67 70 71 74 79
59 46 38 42 45 46 41 38 33 28 23 19 17 17 17 16 17 20 23 25 22 20 19 15 30 35 38 40 41 45 48 52 55 57 57 57 58 63 61 65 67 73 76
58 52 43 46 50 47 42 37 33 28 24 20 18 17 16 16 18 21 21 22 23 14 8 20 23 31 36 36 40 43 46 48 53 53 53 55 58 59 56 60 67 72 78
63 57 52 52 50 45 42 38 33 28 25 20 19 17 14 15 17 19 20 22 23 19 11 19 23 30 35 35 36 42 45 46 49 49 51 53 55 51 54 62 68 74 79
70 64 54 49 47 46 44 38 33 29 26 21 20 17 13 12 13 15 18 21 22 22 19 21 21 26 30 28 31 37 42 42 47 48 47 51 50 50 56 66 76 81 81
78 61 52 50 49 49 45 39 34 30 25 22 21 17 12 11 11 12 16 18 21 21 19 20 22 25 27 27 30 33 35 39 44 45 46 45 46 50 58 67 75 79 80
71 58 54 54 54 52 47 42 36 31 26 25 22 17 11 9 9 12 14 15 16 18 19 21 23 23 26 27 26 29 33 34 36 43 42 42 47 53 59 62 70 75 78
69 59 60 58 58 53 48 42 36 32 30 26 23 17 12 10 8 12 12 12 12 15 19 21 23 23 25 26 32 36 33 35 33 33 42 44 51 57 58 59 71 75 80
70 57 65 66 60 54 49 42 38 35 31 27 23 19 16 14 11 11 10 10 12 15 18 21 23 24 26 26 31 36 42 44 43 43 46 49 56 61 61 58 68 74 77
63 66 67 62 59 54 48 43 40 36 31 28 24 23 20 18 14 12 11 12 14 15 18 21 23 24 25 25 28 35 42 49 48 49 56 50 53 59 64 58 61 71 75
67 69 67 63 58 53 48 45 42 37 32 29 27 25 24 21 18 16 15 15 17 19 21 21 23 26 25 25 29 33 37 41 46 51 57 55 57 58 62 56 58 69 70
68 71 69 64 59 53 49 47 43 38 33 31 28 28 28 23 23 20 18 17 18 20 22 23 23 25 27 25 29 34 40 44 45 46 49 52 61 63 60 50 60 67 65
72 72 67 63 59 56 52 50 43 38 34 32 29 32 30 30 28 24 22 21 21 22 25 25 25 26 28 30 32 36 40 46 51 46 44 48 60 68 66 46 62 60 62
76 74 69 64 60 56 53 48 43 39 37 32 32 36 34 34 30 29 28 25 25 25 25 27 28 28 30 34 36 37 41 45 44 44 43 49 54 60 61 47 60 56 61
Wind_Direction_500mb
169 166 155 146 107 75 59 51 47 39 24 10 357 356 352 348 342 337 338 339 336 337 338 339 338 331 329 331 328 328 334 330 327 313 310 311 310 311 309 309 309 304 301
205 204 212 216 226 304 16 33 51 22 351 348 337 339 339 337 335 332 334 333 331 337 336 338 335 334 334 332 331 338 337 345 334 334 318 323 325 319 313 308 302 300 299
223 226 231 240 250 262 288 12 336 350 339 332 331 324 323 328 324 325 326 335 340 339 338 333 338 340 333 328 328 332 342 351 346 335 335 338 332 331 328 322 325 321 319
236 235 234 234 231 226 341 343 340 329 326 320 317 320 326 323 321 324 339 353 351 342 346 342 336 331 335 335 334 343 353 346 333 322 321 322 325 323 320 321 319 317 313
247 255 238 234 242 277 300 306 312 317 315 310 315 324 330 326 336 1 355 344 354 357 342 338 337 341 339 341 333 335 345 344 337 333 332 332 332 332 330 329 326 323 319
245 254 255 248 261 267 284 292 304 309 310 308 323 347 342 9 76 3 4 352 360 351 342 342 345 350 347 355 356 349 343 341 339 338 336 335 335 335 336 333 329 325 322
247 255 259 255 268 273 278 289 295 299 299 308 337 354 32 93 92 53 357 29 3 352 349 352 355 356 359 352 347 346 343 343 341 337 335 336 336 338 338 336 331 327 323
245 246 258 261 268 272 279 281 290 295 289 302 321 338 321 238 286 306 356 345 353 353 352 359 357 0 357 350 348 348 348 347 344 342 340 338 336 334 333 332 331 330 328
250 254 255 257 260 270 271 277 281 273 275 291 312 307 328 300 332 318 333 341 350 354 356 360 1 360 353 352 352 350 350 347 345 344 344 341 339 341 342 340 336 333 328
243 252 254 254 257 263 269 272 271 261 263 282 294 281 278 277 301 308 320 336 355 356 4 357 354 353 354 356 354 351 350 351 351 351 352 353 351 349 346 343 340 336 332
243 253 252 257 261 264 265 265 256 251 256 271 272 284 291 302 293 299 299 329 359 360 352 350 352 353 357 359 359 359 358 359 0 2 0 358 355 351 348 347 345 342 337
245 248 255 255 256 261 262 250 242 247 256 255 265 279 300 309 317 326 327 332 349 349 350 350 349 358 2 5 8 6 5 4 3 2 0 359 355 353 353 353 353 351 350
242 241 252 253 254 258 255 246 244 245 243 254 267 288 300 309 322 330 340 337 347 350 342 345 348 358 6 11 13 8 7 5 2 0 359 1 360 359 2 6 6 7 5
245 241 251 253 249 249 245 241 232 233 244 253 268 286 296 309 324 333 338 346 348 346 342 337 347 3 9 14 13 9 7 4 359 1 2 5 3 3 9 6 8 5 4
240 234 247 252 247 248 238 225 225 232 239 251 268 282 294 313 326 334 338 344 346 348 330 331 350 6 13 15 15 11 6 1 3 3 6 6 6 10 13 9 6 3 359
233 232 245 256 246 230 221 220 226 232 242 252 265 274 291 312 324 330 335 340 343 348 343 334 347 2 14 16 12 9 6 4 7 7 10 6 7 12 11 6 3 1 358
230 227 237 252 228 221 218 221 226 232 241 251 260 270 284 304 317 325 334 336 338 344 347 341 354 6 10 11 8 6 2 3 10 11 9 6 5 4 1 359 356 356 358
228 227 232 238 221 216 219 221 225 232 241 250 256 262 276 294 307 322 329 331 334 340 347 344 356 360 1 2 2 4 5 6 8 9 9 3 358 356 354 353 352 355 358
215 222 236 225 214 214 219 222 224 230 237 245 250 250 258 273 299 316 323 329 331 334 342 344 352 354 352 346 355 1 2 8 3 5 5 359 352 349 345 350 353 356 357
215 223 227 217 211 215 217 220 226 229 233 237 241 244 245 255 277 304 312 322 328 335 344 346 339 344 343 339 344 351 2 2 357 1 2 356 353 351 346 346 352 355 355
212 228 219 209 211 214 217 221 225 228 231 233 236 236 236 243 268 283 300 317 328 341 338 332 327 334 328 330 339 346 350 351 351 353 355 351 350 351 347 344 349 353 353
213 219 212 210 213 216 217 222 224 228 230 232 234 233 239 242 255 277 299 313 322 328 321 319 317 319 318 321 330 340 344 347 350 341 341 345 346 349 348 344 344 351 351
214 211 210 211 214 216 219 223 226 227 229 231 233 238 239 242 256 267 283 301 311 314 309 308 307 307 309 308 316 325 336 339 337 333 332 335 344 347 347 343 343 349 353
215 210 213 213 216 218 221 224 227 226 229 232 234 242 242 244 251 257 268 282 290 288 292 294 295 292 292 295 306 316 324 327 330 328 331 329 339 340 344 341 345 347 353
215 212 216 217 218 221 221 223 224 227 232 234 239 244 246 247 251 257 262 268 273 274 282 285 283 286 289 291 296 306 316 321 323 326 329 330 337 334 341 342 343 344 352
216 215 217 218 220 223 223 223 222 226 231 237 244 248 248 251 254 259 261 264 265 266 273 273 280 284 284 285 293 301 307 311 314 322 323 327 331 337 336 336 340 344 350
Wind_Speed_850mb
9 7 6 4 3 4 4 5 5 6 7 11 15 18 20 20 25 27 28 31 31 32 32 33 35 38 39 40 41 42 41 42 40 44 51 54 47 52 55 56 59 63 66
11 8 6 4 2 1 2 3 5 5 9 15 20 22 25 28 28 30 29 30 29 28 29 29 36 36 39 41 40 42 45 41 46 49 54 55 53 53 56 57 61 69 66
15 12 9 7 5 4 2 1 7 13 18 20 25 27 29 27 28 28 28 24 24 24 29 32 30 38 40 42 42 43 44 44 44 43 48 50 52 54 54 57 60 61 62
16 16 12 9 7 2 2 7 13 17 21 25 28 29 27 27 25 23 18 20 23 26 26 31 36 46 39 41 43 40 38 40 42 43 53 61 65 67 67 67 66 68 68
12 11 10 9 10 9 11 12 16 20 20 23 27 24 24 21 13 13 14 22 24 19 30 33 40 39 39 36 37 42 44 49 55 62 65 67 67 68 69 69 71 72 73
17 15 16 16 14 15 16 18 20 21 22 26 20 19 15 8 11 22 15 19 29 24 36 37 37 34 38 37 40 47 55 61 66 69 71 71 71 70 68 70 72 75 78
22 21 18 20 17 19 20 21 22 23 24 21 21 18 4 5 5 9 25 8 26 37 34 36 38 40 38 43 50 58 63 62 63 66 69 73 73 71 70 71 73 76 76
29 25 24 25 25 25 25 23 23 24 24 19 22 18 3 1 10 6 13 20 31 39 36 32 40 37 42 57 61 58 61 64 67 69 70 70 70 71 73 75 77 79 82
32 29 32 31 31 29 33 30 27 25 24 23 20 10 7 4 24 13 16 28 35 34 31 37 35 42 52 57 59 62 62 62 63 63 63 65 67 70 72 75 78 80 81
38 40 39 38 38 38 34 33 29 29 27 26 20 14 11 14 7 10 24 24 30 35 26 35 31 47 52 53 53 55 57 58 59 60 62 63 65 67 71 73 76 79 83
40 40 41 42 41 40 35 34 31 30 27 24 18 14 13 16 13 12 10 19 29 26 28 32 32 45 48 46 49 51 53 56 57 58 61 64 66 66 69 72 74 78 82
48 42 42 44 42 41 38 33 30 28 26 20 17 14 14 14 17 14 16 16 21 17 20 26 31 44 43 44 47 48 50 53 56 59 62 63 60 61 64 70 76 80 82
57 46 40 44 44 42 42 38 34 29 23 20 16 15 16 16 17 20 22 24 21 18 16 21 35 39 41 44 45 44 48 52 55 59 60 61 59 59 67 70 71 74 79
59 46 38 42 45 46 41 38 33 28 23 19 17 17 17 16 17 20 23 25 22 20 19 15 30 35 38 40 41 45 48 52 55 57 57 57 58 63 61 65 67 73 76
58 52 43 46 50 47 42 37 33 28 24 20 18 17 16 16 18 21 21 22 23 14 8 20 23 31 36 36 40 43 46 48 53 53 53 55 58 59 56 60 67 72 78
63 57 52 52 50 45 42 38 33 28 25 20 19 17 14 15 17 19 20 22 23 19 11 19 23 30 35 35 36 42 45 46 49 49 51 53 55 51 54 62 68 74 79
70 64 54 49 47 46 44 38 33 29 26 21 20 17 13 12 13 15 18 21 22 22 19 21 21 26 30 28 31 37 42 42 47 48 47 51 50 50 56 66 76 81 81
78 61 52 50 49 49 45 39 34 30 25 22 21 17 12 11 11 12 16 18 21 21 19 20 22 25 27 27 30 33 35 39 44 45 46 45 46 50 58 67 75 79 80
71 58 54 54 54 52 47 42 36 31 26 25 22 17 11 9 9 12 14 15 16 18 19 21 23 23 26 27 26 29 33 34 36 43 42 42 47 53 59 62 70 75 78
69 59 60 58 58 53 48 42 36 32 30 26 23 17 12 10 8 12 12 12 12 15 19 21 23 23 25 26 32 36 33 35 33 33 42 44 51 57 58 59 71 75 80
70 57 65 66 60 54 49 42 38 35 31 27 23 19 16 14 11 11 10 10 12 15 18 21 23 24 26 26 31 36 42 44 43 43 46 49 56 61 61 58 68 74 77
63 66 67 62 59 54 48 43 40 36 31 28 24 23 20 18 14 12 11 12 14 15 18 21 23 24 25 25 28 35 42 49 48 49 56 50 53 59 64 58 61 71 75
67 69 67 63 58 53 48 45 42 37 32 29 27 25 24 21 18 16 15 15 17 19 21 21 23 26 25 25 29 33 37 41 46 51 57 55 57 58 62 56 58 69 70
68 71 69 64 59 53 49 47 43 38 33 31 28 28 28 23 23 20 18 17 18 20 22 23 23 25 27 25 29 34 40 44 45 46 49 52 61 63 60 50 60 67 65
72 72 67 63 59 56 52 50 43 38 34 32 29 32 30 30 28 24 22 21 21 22 25 25 25 26 28 30 32 36 40 46 51 46 44 48 60 68 66 46 62 60 62
76 74 69 64 60 56 53 48 43 39 37 32 32 36 34 34 30 29 28 25 25 25 25 27 28 28 30 34 36 37 41 45 44 44 43 49 54 60 61 47 60 56 61
Wind_Direction_850mb
169 166 155 146 107 75 59 51 47 39 24 10 357 356 352 348 342 337 338 339 336 337 338 339 338 331 329 331 328 328 334 330 327 313 310 311 310 311 309 309 309 304 301
205 204 212 216 226 304 16 33 51 22 351 348 337 339 339 337 335 332 334 333 331 337 336 338 335 334 334 332 331 338 337 345 334 334 318 323 325 319 313 308 302 300 299
223 226 231 240 250 262 288 12 336 350 339 332 331 324 323 328 324 325 326 335 340 339 338 333 338 340 333 328 328 332 342 351 346 335 335 338 332 331 328 322 325 321 319
236 235 234 234 231 226 341 343 340 329 326 320 317 320 326 323 321 324 339 353 351 342 346 342 336 331 335 335 334 343 353 346 333 322 321 322 325 323 320 321 319 317 313
247 255 238 234 242 277 300 306 312 317 315 310 315 324 330 326 336 1 355 344 354 357 342 338 337 341 339 341 333 335 345 344 337 333 332 332 332 332 330 329 326 323 319
245 254 255 248 261 267 284 292 304 309 310 308 323 347 342 9 76 3 4 352 360 351 342 342 345 350 347 355 356 349 343 341 339 338 336 335 335 335 336 333 329 325 322
247 255 259 255 268 273 278 289 295 299 299 308 337 354 32 93 92 53 357 29 3 352 349 352 355 356 359 352 347 346 343 343 341 337 335 336 336 338 338 336 331 327 323
245 246 258 261 268 272 279 281 290 295 289 302 321 338 321 238 286 306 356 345 353 353 352 359 357 0 357 350 348 348 348 347 344 342 340 338 336 334 333 332 331 330 328
250 254 255 257 260 270 271 277 281 273 275 291 312 307 328 300 332 318 333 341 350 354 356 360 1 360 353 352 352 350 350 347 345 344 344 341 339 341 342 340 336 333 328
243 252 254 254 257 263 269 272 271 261 263 282 294 281 278 277 301 308 320 336 355 356 4 357 354 353 354 356 354 351 350 351 351 351 352 353 351 349 346 343 340 336 332
243 253 252 257 261 264 265 265 256 251 256 271 272 284 291 302 293 299 299 329 359 360 352 350 352 353 357 359 359 359 358 359 0 2 0 358 355 351 348 347 345 342 337
245 248 255 255 256 261 262 250 242 247 256 255 265 279 300 309 317 326 327 332 349 349 350 350 349 358 2 5 8 6 5 4 3 2 0 359 355 353 353 353 353 351 350
242 241 252 253 254 258 255 246 244 245 243 254 267 288 300 309 322 330 340 337 347 350 342 345 348 358 6 11 13 8 7 5 2 0 359 1 360 359 2 6 6 7 5
245 241 251 253 249 249 245 241 232 233 244 253 268 286 296 309 324 333 338 346 348 346 342 337 347 3 9 14 13 9 7 4 359 1 2 5 3 3 9 6 8 5 4
240 234 247 252 247 248 238 225 225 232 239 251 268 282 294 313 326 334 338 344 346 348 330 331 350 6 13 15 15 11 6 1 3 3 6 6 6 10 13 9 6 3 359
233 232 245 256 246 230 221 220 226 232 242 252 265 274 291 312 324 330 335 340 343 348 343 334 347 2 14 16 12 9 6 4 7 7 10 6 7 12 11 6 3 1 358
230 227 237 252 228 221 218 221 226 232 241 251 260 270 284 304 317 325 334 336 338 344 347 341 354 6 10 11 8 6 2 3 10 11 9 6 5 4 1 359 356 356 358
228 227 232 238 221 216 219 221 225 232 241 250 256 262 276 294 307 322 329 331 334 340 347 344 356 360 1 2 2 4 5 6 8 9 9 3 358 356 354 353 352 355 358
215 222 236 225 214 214 219 222 224 230 237 245 250 250 258 273 299 316 323 329 331 334 342 344 352 354 352 346 355 1 2 8 3 5 5 359 352 349 345 350 353 356 357
215 223 227 217 211 215 217 220 226 229 233 237 241 244 245 255 277 304 312 322 328 335 344 346 339 344 343 339 344 351 2 2 357 1 2 356 353 351 346 346 352 355 355
212 228 219 209 211 214 217 221 225 228 231 233 236 236 236 243 268 283 300 317 328 341 338 332 327 334 328 330 339 346 350 351 351 353 355 351 350 351 347 344 349 353 353
213 219 212 210 213 216 217 222 224 228 230 232 234 233 239 242 255 277 299 313 322 328 321 319 317 319 318 321 330 340 344 347 350 341 341 345 346 349 348 344 344 351 351
214 211 210 211 214 216 219 223 226 227 229 231 233 238 239 242 256 267 283 301 311 314 309 308 307 307 309 308 316 325 336 339 337 333 332 335 344 347 347 343 343 349 353
215 210 213 213 216 218 221 224 227 226 229 232 234 242 242 244 251 257 268 282 290 288 292 294 295 292 292 295 306 316 324 327 330 328 331 329 339 340 344 341 345 347 353
215 212 216 217 218 221 221 223 224 227 232 234 239 244 246 247 251 257 262 268 273 274 282 285 283 286 289 291 296 306 316 321 323 326 329 330 337 334 341 342 343 344 352
216 215 217 218 220 223 223 223 222 226 231 237 244 248 248 251 254 259 261 264 265 266 273 273 280 284 284 285 293 301 307 311 314 322 323 327 331 337 336 336 340 344 350